Regional Weather Roundup
Issued by NWS

Home | Current Version | Previous Version | Text Only | Print | Product List | Glossary Off
Versions: 1 2 3 4 5 6 7 8 9 10 11 12 13 14 15 16 17 18 19 20 21 22 23 24 25 26 27 28 29 30 31 32 33 34 35 36 37

000
ASUS45 KBOU 221707
RWRCO

WEATHER ROUNDUP FOR COLORADO
NATIONAL WEATHER SERVICE DENVER/BOULDER CO
1100 AM MDT WED OCT 22 2014

NOTE: "FAIR" INDICATES FEW OR NO CLOUDS BELOW 12000 FEET WITH NO
SIGNIFICANT WEATHER AND/OR OBSTRUCTIONS TO VISIBILITY.

COZ001>005-013-030-031-221800-
...NORTHWEST COLORADO...

CITY           SKY/WX    TMP DP  RH WIND       PRES   REMARKS
CRAIG          PTSUNNY   50  41  71 W5        30.22R
HAYDEN         MOSUNNY   48  37  66 CALM      30.21S
MEEKER         SUNNY     51  43  74 MISG      30.20S
MOUNT WERNER   NOT AVBL
STEAMBOAT SPGS CLOUDY    45  40  82 CALM      30.22S
WALDEN         CLOUDY    50  36  57 SW17      30.21S
$$

COZ006>008-011-221800-
...WEST CENTRAL VALLEYS...

CITY           SKY/WX    TMP DP  RH WIND       PRES   REMARKS
GRAND JUNCTION MOSUNNY   59  45  59 SE8       30.16R
MONTROSE       MOSUNNY   56  41  57 CALM      30.20S
EAGLE          MOSUNNY   48  43  81 CALM      30.25S
RIFLE          MOSUNNY   54  43  66 NE6       30.20S
DELTA          MOSUNNY   59  47  63 CALM      30.19S
NUCLA          MOSUNNY   59  41  51 CALM      30.23S
$$

COZ017>023-064>068-221800-
...SOUTHWEST COLORADO...

CITY           SKY/WX    TMP DP  RH WIND       PRES   REMARKS
DURANGO        MOSUNNY   54  45  71 SE3       30.25S
CORTEZ         SUNNY     62  43  49 CALM      30.21S
PAGOSA SPRINGS MOSUNNY   54  42  65 CALM      30.29S
TELLURIDE      MOSUNNY   50  36  57 S3        30.34S
WOLF CREEK PAS PTSUNNY   36  34  93 S8          N/A
$$

COZ009-010-012-014-032>034-037-058>063-221800-
...CENTRAL COLORADO...

CITY           SKY/WX    TMP DP  RH WIND       PRES   REMARKS
ASPEN          MOSUNNY   48  40  73 N5        30.24S
BUENA VISTA    MOSUNNY   50  37  62 SE7       30.26S
COPPER MTN     PTSUNNY   37  28  70 SW7       30.40R
BERTHOUD PASS  PTSUNNY   28  27  93 MISG      30.39R
COTTONWOOD PAS MOSUNNY   46  36  66 CALM      30.33R
GUNNISON       CLOUDY    46  39  76 N9        30.32R
KREMMLING      CLOUDY    50  37  62 SW3         N/A
LEADVILLE      CLOUDY    39  34  82 NE6       30.31R
MONARCH PASS   SNOW      32  30  93 MISG      30.50R VSB<1/4
SALIDA         PTSUNNY   56  41  57 SW7       30.31F
SUNLIGHT       PTSUNNY   41  41 100 CALM      30.37S
WILKERSON PASS NOT AVBL
$$

COZ069>075-221800-
...SAN LUIS VALLEY/SANGRE DE CRISTO MOUNTAINS...

CITY           SKY/WX    TMP DP  RH WIND       PRES   REMARKS
ALAMOSA        SUNNY     54  38  54 N6        30.26S
LA VETA PASS   MOSUNNY   46  34  61 S7        30.36R
SAGUACHE       SUNNY     54  36  50 SE5       30.28S
$$

COZ035-036-038>040-221800-
...NORTHERN COLORADO FRONT RANGE...

CITY           SKY/WX    TMP DP  RH WIND       PRES   REMARKS
DENVER INTL AP MOSUNNY   64  39  39 SE7       30.12R
DMNS CITY PARK   N/A     65  38  37 S6        30.11R
AURORA         PTSUNNY   64  38  37 SW6       30.13R
FRONT RANGE AP MOSUNNY   64  41  42 SE9       30.13R
ERIE MUNI ARPT CLOUDY    59  45  59 N6        30.11R
BOULDER MUN AP CLOUDY    55  43  62 N6        30.11S
CENTENNIAL     PTSUNNY   63  34  33 VRB5      30.12S
BROOMFIELD     MOSUNNY   63  37  39 CALM      30.13R
FORT COLLINS   MOSUNNY   57  43  58 CALM      30.13R
LONGMONT       CLOUDY    58  46  62 CALM      30.12S
$$

COZ041-046-047-076>085-087-088-221800-
...PIKES PEAK/PALMER DIVIDE AND SOUTHERN FOOTHILLS...

CITY           SKY/WX    TMP DP  RH WIND       PRES   REMARKS
COLO. SPRINGS  MOSUNNY   61  39  44 S8        30.17S
A. F. ACADEMY  MOSUNNY   61  36  39 S10       30.17S
ELLICOTT       SUNNY     63  34  33 CALM      30.15S
FALCON         SUNNY     61  35  37 S8        30.20R
FORT CARSON    SUNNY     61  41  47 S10       30.15S
LIMON          SUNNY     64  38  38 N14       30.13S
MONUMENT HILL  SUNNY     61  32  33 S6        30.17S
TRINIDAD       SUNNY     64  42  44 E10       30.16S
$$

COZ042>045-048>051-090-091-221800-
...NORTHEAST COLORADO...

CITY           SKY/WX    TMP DP  RH WIND       PRES   REMARKS
GREELEY ARPT   MOSUNNY   63  41  45 S6        30.12R
AKRON          LGT RAIN  63  39  41 N20       30.11R
BURLINGTON     MOSUNNY   66  45  46 N16       30.08R
WRAY           PTSUNNY   68  44  41 N6        30.06S
STERLING       SUNNY     68  43  40 N12       30.07F
HOLYOKE          N/A     68  45  42 NW10      30.07R
FORT MORGAN    SUNNY     66  37  34 NE3       30.10S
$$

COZ086-089-092>099-221800-
...SOUTHEAST COLORADO...

CITY           SKY/WX    TMP DP  RH WIND       PRES   REMARKS
PUEBLO         SUNNY     65  43  44 S6        30.11F
LA JUNTA       SUNNY     66  45  46 CALM      30.10R
LAMAR          PTSUNNY   69  46  43 N13       30.04S
SPRINGFIELD      N/A     68  45  43 N14       30.07S
$$



USA.gov is the U.S. government's official web portal to all federal, state and local government web resources and services.